TVS31R LKPR-LGIR

Flight info

Callsign TVS31R
Flight time 2h 33m
Altitude 35000
Route VOZ DCT LIKSA DCT PEPIK DCT KEROP DCT IBISI DCT MAKED DCT KEA UL607 GIVIS T514 XAVIS
Aircraft B738/M-SDFGHIJ1LORVWXYZ/LB1

Departure

Time 2026-05-01 08:27
Airport Václav Havel Airport Prague (LKPR)

Arrival

Time 2026-05-01 11:00
Airport Heraklion International Nikos Kazantzakis Airport (LGIR)
Time Latitude Longitude Altitude Speed Heading
2026-05-01 07:30 50.10435 14.26583 1173 ft 0 kts 34°
2026-05-01 08:16 50.10426 14.26573 1173 ft 4 kts 35°
2026-05-01 08:16 50.10409 14.26552 1173 ft 4 kts 66°
2026-05-01 08:16 50.10406 14.26539 1169 ft 4 kts 120°
2026-05-01 08:16 50.10418 14.26511 1168 ft 4 kts 124°
2026-05-01 08:17 50.10434 14.26473 1173 ft 2 kts 124°
2026-05-01 08:17 50.10435 14.26471 1173 ft 1 kts 124°
2026-05-01 08:20 50.10434 14.26473 1173 ft 1 kts 124°
2026-05-01 08:20 50.10424 14.26497 1170 ft 5 kts 124°
2026-05-01 08:21 50.10392 14.26569 1171 ft 11 kts 124°
2026-05-01 08:21 50.10336 14.26609 1173 ft 10 kts 211°
2026-05-01 08:21 50.10278 14.26547 1173 ft 10 kts 214°
2026-05-01 08:21 50.10220 14.26555 1177 ft 10 kts 128°
2026-05-01 08:22 50.10180 14.26638 1175 ft 9 kts 127°
2026-05-01 08:22 50.10141 14.26719 1176 ft 9 kts 127°
2026-05-01 08:22 50.10102 14.26799 1183 ft 10 kts 127°
2026-05-01 08:22 50.10050 14.26907 1190 ft 13 kts 127°
2026-05-01 08:23 50.09995 14.27020 1195 ft 13 kts 127°
2026-05-01 08:23 50.09942 14.27129 1199 ft 12 kts 127°
2026-05-01 08:23 50.09889 14.27240 1201 ft 14 kts 127°
2026-05-01 08:23 50.09820 14.27362 1203 ft 16 kts 135°
2026-05-01 08:24 50.09733 14.27497 1204 ft 19 kts 135°
2026-05-01 08:24 50.09633 14.27650 1208 ft 20 kts 135°
2026-05-01 08:24 50.09535 14.27800 1211 ft 19 kts 135°
2026-05-01 08:24 50.09441 14.27946 1214 ft 19 kts 135°
2026-05-01 08:25 50.09349 14.28086 1214 ft 18 kts 135°
2026-05-01 08:25 50.09270 14.28206 1213 ft 12 kts 135°
2026-05-01 08:25 50.09209 14.28281 1211 ft 11 kts 162°
2026-05-01 08:25 50.09139 14.28254 1210 ft 11 kts 216°
2026-05-01 08:26 50.09083 14.28178 1209 ft 11 kts 222°
2026-05-01 08:26 50.09089 14.28075 1207 ft 11 kts 308°
2026-05-01 08:26 50.09139 14.27972 1210 ft 20 kts 307°
2026-05-01 08:26 50.09361 14.27514 1208 ft 86 kts 307°
2026-05-01 08:27 50.09843 14.26516 1203 ft 142 kts 307°
2026-05-01 08:27 50.10528 14.25103 1324 ft 174 kts 307°
2026-05-01 08:27 50.11259 14.23607 2021 ft 176 kts 308°
2026-05-01 08:27 50.12003 14.22064 2656 ft 179 kts 308°
2026-05-01 08:28 50.12767 14.20477 3243 ft 184 kts 309°
2026-05-01 08:28 50.13534 14.18884 3937 ft 183 kts 308°
2026-05-01 08:28 50.14310 14.17275 4505 ft 191 kts 308°
2026-05-01 08:28 50.14823 14.15246 4690 ft 218 kts 269°
2026-05-01 08:29 50.14277 14.12964 4859 ft 240 kts 228°
2026-05-01 08:29 50.12808 14.11596 5068 ft 261 kts 191°
2026-05-01 08:29 50.10980 14.11690 5491 ft 270 kts 159°
2026-05-01 08:29 50.09337 14.13100 6117 ft 272 kts 144°
2026-05-01 08:30 50.07755 14.14738 6849 ft 274 kts 143°
2026-05-01 08:30 50.06163 14.16394 7533 ft 277 kts 143°
2026-05-01 08:30 50.04550 14.18047 8250 ft 279 kts 143°
2026-05-01 08:30 50.02916 14.19698 8986 ft 282 kts 143°
2026-05-01 08:31 50.01260 14.21348 9738 ft 284 kts 143°
2026-05-01 08:31 49.99606 14.22976 10445 ft 287 kts 143°
2026-05-01 08:31 49.97881 14.24668 10809 ft 304 kts 143°
2026-05-01 08:31 49.96024 14.26483 10993 ft 326 kts 143°
2026-05-01 08:32 49.94039 14.28411 11233 ft 345 kts 144°
2026-05-01 08:32 49.91976 14.30399 11783 ft 352 kts 144°
2026-05-01 08:32 49.89887 14.32405 12489 ft 355 kts 143°
2026-05-01 08:32 49.87777 14.34426 13209 ft 358 kts 143°
2026-05-01 08:33 49.85708 14.36588 13899 ft 358 kts 135°
2026-05-01 08:33 49.83912 14.39261 14597 ft 358 kts 129°
2026-05-01 08:33 49.82180 14.42047 15294 ft 360 kts 129°
2026-05-01 08:33 49.80447 14.44855 16008 ft 363 kts 129°
2026-05-01 08:34 49.78686 14.47690 16680 ft 366 kts 129°
2026-05-01 08:34 49.76904 14.50532 17348 ft 370 kts 129°
2026-05-01 08:34 49.75096 14.53392 18017 ft 374 kts 129°
2026-05-01 08:34 49.73266 14.56271 18672 ft 377 kts 129°
2026-05-01 08:35 49.71417 14.59168 19271 ft 380 kts 129°
2026-05-01 08:35 49.69548 14.62092 19809 ft 385 kts 129°
2026-05-01 08:35 49.67656 14.65045 20337 ft 389 kts 129°
2026-05-01 08:35 49.65746 14.68024 20923 ft 392 kts 129°
2026-05-01 08:36 49.63821 14.71021 21454 ft 395 kts 129°
2026-05-01 08:36 49.61879 14.74043 21980 ft 399 kts 129°
2026-05-01 08:36 49.59916 14.77093 22489 ft 403 kts 129°
2026-05-01 08:36 49.57934 14.80169 23011 ft 406 kts 129°
2026-05-01 08:37 49.55938 14.83261 23521 ft 409 kts 129°
2026-05-01 08:37 49.53968 14.86428 24006 ft 409 kts 124°
2026-05-01 08:37 49.52322 14.89968 24402 ft 405 kts 114°
2026-05-01 08:37 49.51040 14.93816 24848 ft 404 kts 110°
2026-05-01 08:38 49.49797 14.97706 25281 ft 406 kts 110°
2026-05-01 08:38 49.48549 15.01614 25674 ft 409 kts 110°
2026-05-01 08:38 49.47284 15.05549 26057 ft 412 kts 110°
2026-05-01 08:38 49.46002 15.09507 26434 ft 415 kts 111°
2026-05-01 08:39 49.44704 15.13486 26810 ft 418 kts 111°
2026-05-01 08:39 49.43394 15.17481 27179 ft 420 kts 111°
2026-05-01 08:39 49.42072 15.21502 27536 ft 423 kts 111°
2026-05-01 08:39 49.40740 15.25542 27884 ft 426 kts 111°
2026-05-01 08:40 49.38047 15.33688 28607 ft 430 kts 111°
2026-05-01 08:40 49.36688 15.37786 28977 ft 432 kts 111°
2026-05-01 08:40 49.35321 15.41901 29305 ft 434 kts 111°
2026-05-01 08:41 49.33946 15.46038 29617 ft 437 kts 111°
2026-05-01 08:41 49.32564 15.50193 29930 ft 439 kts 111°
2026-05-01 08:41 49.31174 15.54359 30352 ft 438 kts 111°
2026-05-01 08:41 49.30241 15.57148 30659 ft 437 kts 111°
2026-05-01 08:42 49.29044 15.60726 30998 ft 435 kts 111°
2026-05-01 08:42 49.27665 15.64841 31365 ft 434 kts 111°
2026-05-01 08:42 49.26288 15.68952 31696 ft 434 kts 111°
2026-05-01 08:42 49.24926 15.73008 32073 ft 433 kts 110°
2026-05-01 08:43 49.23555 15.77080 32574 ft 429 kts 110°
2026-05-01 08:43 49.22193 15.81119 32957 ft 427 kts 110°
2026-05-01 08:43 49.20833 15.85154 33236 ft 428 kts 110°
2026-05-01 08:43 49.19464 15.89210 33529 ft 428 kts 110°
2026-05-01 08:44 49.18098 15.93249 33884 ft 427 kts 110°
2026-05-01 08:44 49.16734 15.97272 34290 ft 426 kts 110°
2026-05-01 08:44 49.15372 16.01283 34581 ft 425 kts 110°
2026-05-01 08:44 49.14007 16.05290 34801 ft 426 kts 110°
2026-05-01 08:45 49.12637 16.09303 35018 ft 427 kts 110°
2026-05-01 08:45 49.11262 16.13317 35345 ft 425 kts 110°
2026-05-01 08:45 49.08502 16.21372 35434 ft 431 kts 110°
2026-05-01 08:46 49.05724 16.29443 35417 ft 427 kts 110°
2026-05-01 08:46 49.02979 16.37392 35407 ft 423 kts 110°
2026-05-01 08:47 49.00240 16.45311 35411 ft 422 kts 110°
2026-05-01 08:47 48.97495 16.53231 35398 ft 423 kts 110°
2026-05-01 08:48 48.94739 16.61147 35400 ft 423 kts 110°
2026-05-01 08:48 48.91980 16.69053 35399 ft 423 kts 110°
2026-05-01 08:49 48.89216 16.76949 35400 ft 423 kts 110°
2026-05-01 08:49 48.86442 16.84845 35398 ft 423 kts 110°
2026-05-01 08:50 48.83663 16.92738 35399 ft 424 kts 110°
2026-05-01 08:50 48.80877 17.00628 35391 ft 424 kts 110°
2026-05-01 08:51 48.77527 17.08102 35401 ft 438 kts 125°
2026-05-01 08:51 48.72787 17.14033 35406 ft 450 kts 137°
2026-05-01 08:52 48.67630 17.19427 35400 ft 451 kts 137°
2026-05-01 08:52 48.62474 17.24804 35394 ft 450 kts 137°
2026-05-01 08:53 48.57339 17.30213 35389 ft 450 kts 137°
2026-05-01 08:53 48.52221 17.35629 35390 ft 449 kts 137°
2026-05-01 08:54 48.47105 17.41036 35393 ft 449 kts 137°
2026-05-01 08:54 48.41985 17.46433 35396 ft 449 kts 137°
2026-05-01 08:55 48.36858 17.51821 35394 ft 450 kts 136°
2026-05-01 08:55 48.31721 17.57204 35392 ft 450 kts 137°
2026-05-01 08:56 48.26591 17.62568 35388 ft 449 kts 137°
2026-05-01 08:56 48.22540 17.66796 35382 ft 449 kts 137°
2026-05-01 08:57 48.17412 17.72135 35391 ft 448 kts 137°
2026-05-01 08:57 48.12286 17.77457 35418 ft 448 kts 136°
2026-05-01 08:58 48.07154 17.82774 35393 ft 449 kts 136°
2026-05-01 08:58 48.02022 17.88078 35387 ft 449 kts 136°
2026-05-01 08:59 47.96893 17.93366 35381 ft 448 kts 136°
2026-05-01 08:59 47.91766 17.98636 35386 ft 447 kts 136°
2026-05-01 09:00 47.86642 18.03891 35432 ft 447 kts 136°
2026-05-01 09:00 47.81515 18.09138 35396 ft 447 kts 136°
2026-05-01 09:01 47.77258 18.13486 35387 ft 447 kts 136°
2026-05-01 09:01 47.72134 18.18704 35382 ft 446 kts 136°
2026-05-01 09:02 47.67014 18.23906 35385 ft 446 kts 136°
2026-05-01 09:02 47.61898 18.29094 35387 ft 445 kts 136°
2026-05-01 09:03 47.56774 18.34275 35388 ft 447 kts 136°
2026-05-01 09:03 47.51645 18.39453 35382 ft 446 kts 136°
2026-05-01 09:04 47.46517 18.44614 35375 ft 446 kts 136°
2026-05-01 09:04 47.41391 18.49760 35376 ft 445 kts 136°
2026-05-01 09:05 47.36265 18.54896 35380 ft 445 kts 136°
2026-05-01 09:05 47.31140 18.60017 35378 ft 445 kts 136°
2026-05-01 09:06 47.26013 18.65127 35383 ft 445 kts 136°
2026-05-01 09:06 47.20921 18.70192 35383 ft 445 kts 136°
2026-05-01 09:07 47.15799 18.75272 35385 ft 444 kts 136°
2026-05-01 09:07 47.10678 18.80342 35381 ft 444 kts 136°
2026-05-01 09:08 47.05554 18.85401 35390 ft 444 kts 137°
2026-05-01 09:08 47.00423 18.90456 35380 ft 444 kts 137°
2026-05-01 09:09 46.95288 18.95504 35381 ft 445 kts 137°
2026-05-01 09:09 46.90135 19.00559 35370 ft 446 kts 137°
2026-05-01 09:10 46.84979 19.05604 35373 ft 446 kts 137°
2026-05-01 09:10 46.79814 19.10644 35374 ft 447 kts 138°
2026-05-01 09:11 46.74639 19.15682 35374 ft 448 kts 138°
2026-05-01 09:11 46.70144 19.20049 35366 ft 448 kts 138°
2026-05-01 09:12 46.65371 19.24676 35371 ft 449 kts 138°
2026-05-01 09:12 46.60171 19.29706 35370 ft 449 kts 138°
2026-05-01 09:13 46.54967 19.34730 35381 ft 450 kts 139°
2026-05-01 09:13 46.49740 19.39763 35376 ft 452 kts 139°
2026-05-01 09:14 46.44492 19.44805 35370 ft 453 kts 139°
2026-05-01 09:14 46.39231 19.49847 35367 ft 454 kts 140°
2026-05-01 09:15 46.33960 19.54886 35367 ft 454 kts 140°
2026-05-01 09:15 46.28677 19.59926 35373 ft 456 kts 141°
2026-05-01 09:16 46.23385 19.64964 35369 ft 456 kts 141°
2026-05-01 09:17 46.15186 19.72057 35373 ft 463 kts 149°
2026-05-01 09:17 46.06323 19.77699 35368 ft 465 kts 151°
2026-05-01 09:18 45.97460 19.83349 35361 ft 464 kts 150°
2026-05-01 09:19 45.88633 19.89065 35361 ft 464 kts 150°
2026-05-01 09:20 45.79853 19.94744 35359 ft 463 kts 150°
2026-05-01 09:21 45.68106 20.02306 35364 ft 463 kts 151°
2026-05-01 09:21 45.59301 20.07949 35360 ft 462 kts 151°
2026-05-01 09:22 45.47573 20.15433 35360 ft 461 kts 152°
2026-05-01 09:23 45.38792 20.21018 35369 ft 461 kts 152°
2026-05-01 09:24 45.29996 20.26592 35360 ft 461 kts 152°
2026-05-01 09:25 45.18271 20.33991 35357 ft 461 kts 152°
2026-05-01 09:26 45.09470 20.39524 35365 ft 462 kts 153°
2026-05-01 09:26 45.01848 20.44299 35359 ft 463 kts 153°
2026-05-01 09:27 44.93187 20.49709 35371 ft 463 kts 153°
2026-05-01 09:28 44.87287 20.53386 35365 ft 463 kts 153°
2026-05-01 09:28 44.81389 20.57053 35385 ft 464 kts 153°
2026-05-01 09:29 44.72516 20.62553 35354 ft 464 kts 153°
2026-05-01 09:30 44.63648 20.68028 35342 ft 464 kts 154°
2026-05-01 09:30 44.54787 20.73484 35343 ft 463 kts 154°
2026-05-01 09:31 44.48881 20.77109 35346 ft 463 kts 154°
2026-05-01 09:32 44.40029 20.82531 35333 ft 462 kts 154°
2026-05-01 09:32 44.31189 20.87924 35337 ft 461 kts 154°
2026-05-01 09:33 44.25303 20.91506 35331 ft 461 kts 154°
2026-05-01 09:34 44.16483 20.96860 35328 ft 461 kts 155°
2026-05-01 09:34 44.07670 21.02189 35334 ft 460 kts 155°
2026-05-01 09:35 43.98854 21.07505 35331 ft 460 kts 155°
2026-05-01 09:36 43.92977 21.11040 35336 ft 461 kts 155°
2026-05-01 09:36 43.87093 21.14571 35329 ft 461 kts 155°
2026-05-01 09:37 43.81244 21.18073 35330 ft 461 kts 155°
2026-05-01 09:37 43.72358 21.23378 35319 ft 462 kts 156°
2026-05-01 09:38 43.63546 21.28624 35325 ft 462 kts 156°
2026-05-01 09:39 43.54685 21.33880 35323 ft 462 kts 156°
2026-05-01 09:39 43.48772 21.37380 35312 ft 462 kts 156°
2026-05-01 09:40 43.39893 21.42620 35307 ft 463 kts 156°
2026-05-01 09:41 43.33965 21.46108 35318 ft 463 kts 157°
2026-05-01 09:41 43.26352 21.50579 35296 ft 463 kts 157°
2026-05-01 09:42 43.20419 21.54054 35300 ft 464 kts 157°
2026-05-01 09:43 43.08548 21.60986 35296 ft 464 kts 158°
2026-05-01 09:43 43.02611 21.64444 35294 ft 463 kts 158°
2026-05-01 09:44 42.93678 21.69509 35293 ft 463 kts 161°
2026-05-01 09:45 42.87591 21.72382 35290 ft 463 kts 163°
2026-05-01 09:45 42.78427 21.76550 35298 ft 463 kts 163°
2026-05-01 09:46 42.72329 21.79370 35301 ft 463 kts 163°
2026-05-01 09:46 42.66232 21.82205 35286 ft 463 kts 163°
2026-05-01 09:47 42.60140 21.85036 35281 ft 463 kts 163°
2026-05-01 09:47 42.54040 21.87861 35272 ft 463 kts 163°
2026-05-01 09:48 42.48982 21.90201 35274 ft 463 kts 163°
2026-05-01 09:48 42.41896 21.93476 35254 ft 463 kts 163°
2026-05-01 09:49 42.36784 21.95831 35251 ft 463 kts 163°
2026-05-01 09:49 42.29690 21.99092 35249 ft 464 kts 163°
2026-05-01 09:50 42.24571 22.01441 35243 ft 464 kts 164°
2026-05-01 09:50 42.18451 22.04242 35237 ft 464 kts 163°
2026-05-01 09:51 42.12332 22.07040 35228 ft 464 kts 164°
2026-05-01 09:51 42.06256 22.09809 35237 ft 464 kts 164°
2026-05-01 09:52 42.00136 22.12595 35220 ft 464 kts 164°
2026-05-01 09:52 41.93974 22.15394 35232 ft 465 kts 164°
2026-05-01 09:53 41.87846 22.18170 35221 ft 465 kts 164°
2026-05-01 09:53 41.81761 22.20924 35213 ft 465 kts 165°
2026-05-01 09:54 41.75638 22.23688 35228 ft 464 kts 165°
2026-05-01 09:54 41.69467 22.26468 35230 ft 465 kts 165°
2026-05-01 09:55 41.63368 22.29212 35223 ft 465 kts 165°
2026-05-01 09:55 41.57230 22.31964 35219 ft 466 kts 165°
2026-05-01 09:56 41.51086 22.34717 35226 ft 466 kts 165°
2026-05-01 09:56 41.46017 22.36982 35218 ft 465 kts 165°
2026-05-01 09:57 41.40048 22.39637 35237 ft 464 kts 165°
2026-05-01 09:57 41.33929 22.42375 35226 ft 464 kts 166°
2026-05-01 09:58 41.27801 22.45098 35232 ft 465 kts 166°
2026-05-01 09:58 41.21664 22.47819 35234 ft 465 kts 166°
2026-05-01 09:59 41.15517 22.50542 35218 ft 466 kts 166°
2026-05-01 09:59 41.09393 22.53411 35235 ft 468 kts 163°
2026-05-01 10:00 41.03337 22.56619 35236 ft 470 kts 162°
2026-05-01 10:00 40.97273 22.59878 35226 ft 470 kts 162°
2026-05-01 10:01 40.91201 22.63098 35217 ft 470 kts 163°
2026-05-01 10:01 40.85118 22.66285 35230 ft 470 kts 163°
2026-05-01 10:02 40.79037 22.69458 35236 ft 470 kts 163°
2026-05-01 10:02 40.72944 22.72630 35230 ft 471 kts 163°
2026-05-01 10:03 40.66849 22.75801 35230 ft 471 kts 164°
2026-05-01 10:03 40.60755 22.78965 35236 ft 470 kts 164°
2026-05-01 10:04 40.54669 22.82118 35236 ft 470 kts 164°
2026-05-01 10:04 40.48587 22.85263 35244 ft 470 kts 164°
2026-05-01 10:05 40.42508 22.88399 35232 ft 470 kts 164°
2026-05-01 10:05 40.36423 22.91534 35232 ft 469 kts 164°
2026-05-01 10:06 40.30353 22.94653 35239 ft 469 kts 165°
2026-05-01 10:06 40.24286 22.97766 35230 ft 468 kts 165°
2026-05-01 10:07 40.18217 23.00873 35243 ft 468 kts 165°
2026-05-01 10:07 40.12146 23.03976 35252 ft 468 kts 165°
2026-05-01 10:08 40.03039 23.08617 35221 ft 469 kts 165°
2026-05-01 10:09 39.97010 23.11685 35248 ft 468 kts 165°
2026-05-01 10:09 39.90934 23.14770 35247 ft 468 kts 166°
2026-05-01 10:10 39.84859 23.17848 35243 ft 469 kts 166°
2026-05-01 10:10 39.75726 23.22465 35249 ft 469 kts 166°
2026-05-01 10:11 39.69637 23.25536 35246 ft 470 kts 166°
2026-05-01 10:11 39.64990 23.27874 35244 ft 471 kts 166°
2026-05-01 10:12 39.58871 23.30948 35240 ft 472 kts 166°
2026-05-01 10:13 39.49690 23.35554 35230 ft 472 kts 166°
2026-05-01 10:13 39.43604 23.38599 35236 ft 472 kts 166°
2026-05-01 10:14 39.34399 23.43192 35224 ft 473 kts 167°
2026-05-01 10:14 39.28266 23.46244 35183 ft 472 kts 167°
2026-05-01 10:15 39.22138 23.49290 35184 ft 472 kts 167°
2026-05-01 10:15 39.16007 23.52331 35190 ft 472 kts 167°
2026-05-01 10:16 39.09865 23.55371 35143 ft 473 kts 168°
2026-05-01 10:17 39.00649 23.59924 35189 ft 473 kts 168°
2026-05-01 10:17 38.91439 23.64461 35205 ft 473 kts 168°
2026-05-01 10:18 38.82231 23.68985 35202 ft 471 kts 168°
2026-05-01 10:19 38.76102 23.71988 35200 ft 472 kts 168°
2026-05-01 10:19 38.69965 23.74989 35204 ft 472 kts 168°
2026-05-01 10:20 38.60736 23.79494 35179 ft 474 kts 168°
2026-05-01 10:20 38.54567 23.82495 35184 ft 475 kts 168°
2026-05-01 10:21 38.45340 23.86973 35174 ft 475 kts 168°
2026-05-01 10:22 38.36067 23.91470 35143 ft 475 kts 169°
2026-05-01 10:23 38.26782 23.95956 35176 ft 477 kts 169°
2026-05-01 10:23 38.17461 24.00440 35169 ft 479 kts 169°
2026-05-01 10:24 38.04964 24.06446 35165 ft 481 kts 169°
2026-05-01 10:25 37.92427 24.12447 35156 ft 482 kts 169°
2026-05-01 10:26 37.86161 24.15439 35157 ft 481 kts 169°
2026-05-01 10:27 37.74883 24.20805 35141 ft 482 kts 169°
2026-05-01 10:28 37.65487 24.25267 35096 ft 480 kts 169°
2026-05-01 10:28 37.56118 24.29740 35127 ft 483 kts 166°
2026-05-01 10:29 37.50167 24.33975 35135 ft 496 kts 156°
2026-05-01 10:29 37.47303 24.36303 35128 ft 497 kts 155°
2026-05-01 10:30 37.35674 24.45632 35106 ft 494 kts 156°
2026-05-01 10:31 37.23996 24.54745 34515 ft 491 kts 156°
2026-05-01 10:32 37.18240 24.59235 33655 ft 484 kts 157°
2026-05-01 10:32 37.15393 24.61452 33217 ft 480 kts 157°
2026-05-01 10:32 37.09771 24.65822 32388 ft 471 kts 157°
2026-05-01 10:33 37.04243 24.70111 31588 ft 464 kts 157°
2026-05-01 10:33 36.98787 24.74333 30804 ft 458 kts 157°
2026-05-01 10:34 36.96090 24.76419 30411 ft 455 kts 157°
2026-05-01 10:34 36.93402 24.78495 29994 ft 452 kts 157°
2026-05-01 10:34 36.90734 24.80558 29543 ft 449 kts 157°
2026-05-01 10:35 36.85477 24.84643 28690 ft 440 kts 156°
2026-05-01 10:35 36.82896 24.86650 28295 ft 436 kts 156°
2026-05-01 10:35 36.80333 24.88639 27915 ft 432 kts 156°
2026-05-01 10:35 36.77791 24.90609 27521 ft 428 kts 156°
2026-05-01 10:36 36.72771 24.94492 26746 ft 421 kts 156°
2026-05-01 10:36 36.71131 24.95759 26487 ft 419 kts 156°
2026-05-01 10:36 36.68663 24.97662 26113 ft 415 kts 156°
2026-05-01 10:37 36.66212 24.99542 25731 ft 412 kts 156°
2026-05-01 10:37 36.61362 25.03251 24982 ft 406 kts 156°
2026-05-01 10:37 36.58963 25.05085 24588 ft 403 kts 155°
2026-05-01 10:38 36.56584 25.06901 24229 ft 400 kts 155°
2026-05-01 10:38 36.54215 25.08709 23862 ft 398 kts 155°
2026-05-01 10:38 36.51861 25.10504 23461 ft 396 kts 155°
2026-05-01 10:38 36.49524 25.12285 23035 ft 393 kts 155°
2026-05-01 10:39 36.47204 25.14053 22643 ft 390 kts 155°
2026-05-01 10:39 36.44905 25.15805 22263 ft 386 kts 155°
2026-05-01 10:39 36.42629 25.17537 21907 ft 382 kts 155°
2026-05-01 10:39 36.40374 25.19252 21541 ft 379 kts 155°
2026-05-01 10:40 36.38136 25.20953 21178 ft 376 kts 155°
2026-05-01 10:40 36.35914 25.22639 20823 ft 373 kts 155°
2026-05-01 10:40 36.33713 25.24308 20447 ft 369 kts 155°
2026-05-01 10:40 36.31530 25.25963 20103 ft 366 kts 155°
2026-05-01 10:41 36.29364 25.27604 19759 ft 364 kts 155°
2026-05-01 10:41 36.27212 25.29234 19416 ft 361 kts 154°
2026-05-01 10:41 36.23855 25.31773 18875 ft 358 kts 154°
2026-05-01 10:42 36.21875 25.33271 18549 ft 356 kts 154°
2026-05-01 10:42 36.19765 25.34866 18183 ft 354 kts 154°
2026-05-01 10:42 36.17668 25.36450 17800 ft 352 kts 154°
2026-05-01 10:42 36.15585 25.38022 17437 ft 350 kts 154°
2026-05-01 10:43 36.13515 25.39583 17081 ft 347 kts 154°
2026-05-01 10:43 36.11409 25.40958 16726 ft 338 kts 165°
2026-05-01 10:43 36.09208 25.41899 16412 ft 332 kts 168°
2026-05-01 10:43 36.07013 25.42754 16045 ft 329 kts 169°
2026-05-01 10:44 36.04832 25.43595 15720 ft 327 kts 169°
2026-05-01 10:44 36.02669 25.44436 15396 ft 325 kts 169°
2026-05-01 10:44 36.00521 25.45280 15069 ft 323 kts 168°
2026-05-01 10:44 35.98383 25.46128 14742 ft 321 kts 168°
2026-05-01 10:45 35.96260 25.46975 14413 ft 320 kts 168°
2026-05-01 10:45 35.94142 25.47822 14092 ft 319 kts 168°
2026-05-01 10:45 35.92032 25.48668 13740 ft 319 kts 168°
2026-05-01 10:45 35.89930 25.49511 13374 ft 317 kts 168°
2026-05-01 10:46 35.87837 25.50352 13024 ft 315 kts 168°
2026-05-01 10:46 35.85756 25.51188 12683 ft 314 kts 168°
2026-05-01 10:46 35.83687 25.52019 12347 ft 312 kts 168°
2026-05-01 10:46 35.81634 25.52844 12015 ft 310 kts 167°
2026-05-01 10:47 35.79589 25.53664 11686 ft 308 kts 167°
2026-05-01 10:47 35.77561 25.54477 11359 ft 306 kts 167°
2026-05-01 10:47 35.75550 25.55285 11050 ft 302 kts 168°
2026-05-01 10:47 35.73557 25.56079 10720 ft 299 kts 167°
2026-05-01 10:48 35.71596 25.56863 10439 ft 293 kts 168°
2026-05-01 10:48 35.69688 25.57652 10310 ft 287 kts 162°
2026-05-01 10:48 35.68017 25.59008 10187 ft 290 kts 144°
2026-05-01 10:48 35.66495 25.60581 10090 ft 289 kts 145°
2026-05-01 10:49 35.64902 25.62185 9826 ft 296 kts 145°
2026-05-01 10:49 35.63317 25.63756 9537 ft 296 kts 145°
2026-05-01 10:49 35.61688 25.65286 9203 ft 292 kts 155°
2026-05-01 10:49 35.59801 25.65861 8895 ft 274 kts 191°
2026-05-01 10:50 35.58119 25.65039 8621 ft 256 kts 226°
2026-05-01 10:50 35.57158 25.63287 8423 ft 245 kts 245°
2026-05-01 10:50 35.56372 25.61433 8134 ft 245 kts 244°
2026-05-01 10:50 35.55549 25.59608 7859 ft 244 kts 242°
2026-05-01 10:51 35.54697 25.57812 7598 ft 243 kts 241°
2026-05-01 10:51 35.53832 25.56032 7328 ft 243 kts 240°
2026-05-01 10:51 35.52933 25.54269 7046 ft 244 kts 239°
2026-05-01 10:51 35.52028 25.52509 6777 ft 243 kts 239°
2026-05-01 10:52 35.51119 25.50755 6521 ft 244 kts 239°
2026-05-01 10:52 35.50195 25.48988 6231 ft 248 kts 239°
2026-05-01 10:52 35.49260 25.47206 5967 ft 247 kts 238°
2026-05-01 10:52 35.48339 25.45460 5800 ft 241 kts 238°
2026-05-01 10:53 35.47442 25.43763 5687 ft 233 kts 238°
2026-05-01 10:53 35.46575 25.42123 5593 ft 225 kts 238°
2026-05-01 10:53 35.45565 25.40715 5475 ft 220 kts 213°
2026-05-01 10:53 35.44110 25.40258 5416 ft 221 kts 180°
2026-05-01 10:54 35.42593 25.40667 5197 ft 229 kts 159°
2026-05-01 10:54 35.41183 25.41624 4987 ft 233 kts 153°
2026-05-01 10:54 35.39791 25.42605 4771 ft 228 kts 153°
2026-05-01 10:54 35.38428 25.43529 4465 ft 219 kts 158°
2026-05-01 10:55 35.37009 25.43746 4220 ft 199 kts 198°
2026-05-01 10:55 35.35834 25.42994 4044 ft 190 kts 222°
2026-05-01 10:55 35.35025 25.41773 3836 ft 187 kts 246°
2026-05-01 10:55 35.34478 25.40336 3621 ft 186 kts 246°
2026-05-01 10:56 35.33922 25.38898 3444 ft 188 kts 246°
2026-05-01 10:56 35.33363 25.37443 3232 ft 189 kts 245°
2026-05-01 10:56 35.32829 25.35981 2984 ft 187 kts 256°
2026-05-01 10:56 35.32755 25.35134 2845 ft 182 kts 276°
2026-05-01 10:57 35.32877 25.33655 2665 ft 169 kts 276°
2026-05-01 10:57 35.32978 25.32253 2454 ft 162 kts 277°
2026-05-01 10:57 35.33076 25.30874 2252 ft 161 kts 278°
2026-05-01 10:57 35.33169 25.29525 1981 ft 153 kts 279°
2026-05-01 10:58 35.33259 25.28260 1776 ft 148 kts 279°
2026-05-01 10:58 35.33346 25.27019 1534 ft 144 kts 279°
2026-05-01 10:58 35.33427 25.25806 1293 ft 142 kts 280°
2026-05-01 10:58 35.33513 25.24590 1085 ft 145 kts 281°
2026-05-01 10:59 35.33597 25.23353 909 ft 143 kts 281°
2026-05-01 10:59 35.33679 25.22178 703 ft 135 kts 282°
2026-05-01 10:59 35.33770 25.21023 469 ft 138 kts 282°
2026-05-01 10:59 35.33851 25.19857 316 ft 136 kts 278°
2026-05-01 11:00 35.33927 25.18712 102 ft 136 kts 279°
2026-05-01 11:00 35.33996 25.17723 95 ft 88 kts 275°
2026-05-01 11:00 35.34028 25.17247 92 ft 24 kts 272°
2026-05-01 11:00 35.34014 25.17160 89 ft 10 kts 249°
2026-05-01 11:01 35.33979 25.17067 90 ft 9 kts 246°
2026-05-01 11:01 35.33948 25.17033 91 ft 6 kts 157°
2026-05-01 11:01 35.33941 25.17081 89 ft 6 kts 94°
2026-05-01 11:01 35.33937 25.17138 89 ft 8 kts 94°
2026-05-01 11:02 35.33931 25.17228 90 ft 12 kts 95°
2026-05-01 11:02 35.33924 25.17333 90 ft 12 kts 94°
2026-05-01 11:02 35.33917 25.17435 90 ft 12 kts 95°
2026-05-01 11:02 35.33897 25.17503 93 ft 7 kts 171°
2026-05-01 11:03 35.33855 25.17485 90 ft 6 kts 235°
2026-05-01 11:03 35.33862 25.17442 91 ft 5 kts 315°
2026-05-01 11:03 35.33875 25.17427 91 ft 1 kts 316°
2026-05-01 11:03 35.33879 25.17422 90 ft 1 kts 316°
2026-05-01 11:04 35.33880 25.17421 90 ft 0 kts 316°
2026-05-01 11:08 35.33873 25.17429 90 ft 0 kts 316°